Regional Weather Roundup
Issued by NWS

Home | Current Version | Previous Version | Graphics & Text | Print | Product List | Glossary On
Versions: 1 2 3 4 5 6 7 8 9 10 11 12 13 14 15 16 17 18 19 20 21 22 23 24 25 26 27 28 29 30 31 32 33 34 35 36 37 38 39 40 41 42 43 44 45 46 47 48 49 50
000
ASUS43 KIND 240909
RWRIN

WEATHER ROUNDUP FOR INDIANA
NATIONAL WEATHER SERVICE INDIANAPOLIS IN
400 AM EST TUE JAN 24 2017

NOTE: "FAIR" INDICATES FEW OR NO CLOUDS BELOW 12,000 FEET WITH NO
SIGNIFICANT WEATHER AND/OR OBSTRUCTIONS TO VISIBILITY.

* - STATION DOES NOT REPORT WEATHER SUCH AS PRECIPITATION OR FOG.

+ - STATION NOT QUALITY CONTROLLED BY THE NATIONAL WEATHER SERVICE.
    USE DATA WITH CAUTION...ESPECIALLY DEWPOINT AND RELATIVE
    HUMIDITY OBSERVATIONS.

INZ001>003-010>013-019-020-241000-
NORTHWEST INDIANA

CITY           SKY/WX    TMP DP  RH WIND       PRES   REMARKS
GARY /AIRPORT/ CLOUDY    40  34  79 W6        29.84R
KNOX *+        CLOUDY    37  27  65 NW8       29.80S
LA PORTE +     CLOUDY    37  35  92 NW8       29.81S
MICHIGAN CITY+ CLOUDY    36  36 100 NW7       29.82S
MONTICELLO +   CLOUDY    38  35  87 NW9       29.81R
RENSSELAER +     N/A     37  36  93 NW6       29.82S
VALPARAISO     CLOUDY    39  37  92 NW6       29.82R

$$

LMZ046-743>745-241000-
SOUTHERN LAKE MICHIGAN

STATION/POSITION TIME  TEMP    WIND        PRES    WAVE
                       AIR SEA DIR/SP/G            HT
                 (UTC) (F)     (DEG/KT/KT) (MB)    (FT)
BURNS HARBOR     0840   35     330/  8/ 10 1010.5R
MICHIGAN CITY    0840   36     290/ 10/ 11   N/A

$$

INZ004-005-014>016-021>024-241000-
NORTH CENTRAL INDIANA

CITY           SKY/WX    TMP DP  RH WIND       PRES   REMARKS
GOSHEN         CLOUDY    39  36  89 NW12      29.78R FOG
LOGANSPORT +   CLOUDY    37  36  93 NW7       29.81S FOG
PERU/GRISSOM   CLOUDY    39  39 100 NW10      29.77R
ROCHESTER +    CLOUDY    41  37  87 NW9       29.80R
SOUTH BEND     CLOUDY    37  36  96 NW10      29.80R
WARSAW +       CLOUDY    37  36  93 NW9       29.79R FOG

$$

INZ006>009-017-018-025>027-241000-
NORTHEAST INDIANA

CITY           SKY/WX    TMP DP  RH WIND       PRES   REMARKS
ANGOLA *+      CLOUDY    39  30  70 NW8       29.74R
AUBURN +       CLOUDY    39  37  93 W7        29.76R FOG
FORT WAYNE     CLOUDY    40  38  93 NW9G18    29.76R
HUNTINGTON +   CLOUDY    39  38  96 NW7       29.77R
KENDALLVILLE + CLOUDY    38  38 100 NW7       29.76R FOG

$$

INZ028-029-035-036-043>045-051>053-241000-
WEST CENTRAL INDIANA

CITY           SKY/WX    TMP DP  RH WIND       PRES   REMARKS
CRAWFORDSVL +  CLOUDY    37  37 100 NW8       29.82R
GREENCASTLE +  CLOUDY    37  32  81 NW5       29.82R
LAFAYETTE      CLOUDY    39  36  89 NW6       29.82R
TERRE HAUTE    CLOUDY    41  33  73 NW6       29.84R

$$

INZ030>032-037>040-046>048-054>057-064-065-241000-
CENTRAL INDIANA

CITY           SKY/WX    TMP DP  RH WIND       PRES   REMARKS
CP ATTERBURY + CLOUDY    39  36  87 NW6       29.80S
FRANKFORT +    CLOUDY    41  38  88 NW6       29.82R
GREENWOOD *+   CLOUDY    40  39  95 NW7       29.79S
INDIANAPOLIS   CLOUDY    40  35  83 NW12      29.79S
-EAGLE CREEK   CLOUDY    40  35  83 NW10      29.79S
KOKOMO +       CLOUDY    39  37  92 NW12      29.79R FOG
MARION +       CLOUDY    37  37 100 NW8       29.78S FOG
MT COMFORT *+  CLOUDY    37  37 100 NW10      29.78S
SHELBYVILLE    CLOUDY    40  37  89 NW9       29.77S FOG
ZIONSVILLE +   CLOUDY    37  36  94 NW9       29.79S FOG

$$

INZ033-034-041-042-049-050-058-059-241000-
EAST CENTRAL INDIANA

CITY           SKY/WX    TMP DP  RH WIND       PRES   REMARKS
MUNCIE         CLOUDY    40  38  93 NW10      29.77R FOG

$$

INZ060-061-067>069-081>083-085>088-241000-
SOUTHWEST INDIANA

CITY           SKY/WX    TMP DP  RH WIND       PRES   REMARKS
EVANSVILLE     CLOUDY    41  34  76 VRB3      29.87R
HUNTINGBURG *+ CLOUDY    39  36  87 W8        29.85R
WASHINGTON +   CLOUDY    40  35  81 NW7       29.83S

$$

INZ062-063-066-070>080-084-089>092-241000-
SOUTH CENTRAL AND SOUTHEAST INDIANA

CITY           SKY/WX    TMP DP  RH WIND       PRES   REMARKS
BLOOMINGTON    CLOUDY    39  34  82 VRB3      29.81R
MADISON *+     CLOUDY    39  37  93 W6        29.80R
NORTH VERNON + CLOUDY   N/A N/A N/A NW9       29.79R FOG
SEYMOUR +      CLOUDY    41  39  93 W8        29.80R FOG

$$





USA.gov is the U.S. government's official web portal to all federal, state and local government web resources and services.